Torna al catalogo

STARLINK-36891

AttivoComunicazioniSSO
NORAD 68024·PAYLOAD·🇺🇸 United States

Lanciato Mar 1, 2026 da Vandenberg Space Force Base

Loading…

Prossimi Passaggi (prossime 24 ore)

TLE

AggiornatoSource: CelesTrak SupGP

Epoca: Sep 14, 2026, 22:40 UTC

1 68024C 26040K   26257.94493056 -.00057169  00000+0 -17750-2 0  2572
2 68024  97.2855 205.3390 0001701  89.5734 321.9972 15.33461284    16

Traccia STARLINK-36891 in tempo reale con AllMySat

Download on the App Store